Location: Newark
(44.3681°N, 100.3364°W)
Time: 22:01:11
(UTC+00:00)

S-56A Canister/Altair - All Passes

Search period start: 28 February 2020 00:00
Search period end: 09 March 2020 00:00
Orbit: 633 x 2500 km, 38.9° (Epoch: 27 February)

Date Brightness Start Highest point End Pass type
(mag) Time Alt. Az. Time Alt. Az. Time Alt. Az.
28 Feb - 13:55:41 10° S 14:04:35 27° SE 14:15:24 10° E daylight
28 Feb - 15:56:39 10° SW 16:08:47 55° SSE 16:23:19 10° E daylight
28 Feb - 18:00:53 10° WSW 18:14:55 71° S 18:29:38 10° E daylight
28 Feb - 20:06:41 10° W 20:21:21 61° SSW 20:34:33 10° SE daylight
28 Feb - 22:13:52 10° W 22:26:14 33° SW 22:36:37 10° SSE daylight
29 Feb - 13:23:45 10° S 13:31:37 23° SE 13:41:10 10° E daylight
29 Feb - 15:23:56 10° SW 15:35:24 52° SSE 15:49:38 10° E daylight
29 Feb - 17:27:44 10° WSW 17:41:17 71° S 17:56:13 10° E daylight
29 Feb - 19:33:14 10° W 19:47:47 63° SSW 20:01:32 10° ESE daylight
29 Feb - 21:40:01 10° W 21:53:01 37° SW 22:04:11 10° SSE daylight
29 Feb - 23:53:01 10° WSW 23:56:02 11° WSW 23:58:55 10° SW daylight
01 Mar - 12:52:04 10° SSE 12:58:45 19° SE 13:06:44 10° E visible
01 Mar - 14:51:20 10° SW 15:02:05 48° SSE 15:15:52 10° E daylight
01 Mar - 16:54:41 10° WSW 17:07:40 69° S 17:22:43 10° E daylight
01 Mar - 18:59:52 10° W 19:14:11 66° SSW 19:28:24 10° ESE daylight
01 Mar - 21:06:17 10° W 21:19:44 41° SW 21:31:38 10° SSE daylight
01 Mar - 23:16:52 10° W 23:23:09 14° SW 23:28:56 10° SSW daylight
02 Mar - 12:20:48 10° SSE 12:25:58 15° SE 12:31:56 10° E visible
02 Mar - 14:18:51 10° SSW 14:28:53 43° SSE 14:42:03 10° E daylight
02 Mar - 16:21:45 10° WSW 16:34:07 68° S 16:49:09 10° E daylight
02 Mar - 18:26:36 10° W 18:40:34 67° SSW 18:55:10 10° ESE daylight
02 Mar - 20:32:40 10° W 20:46:22 45° SSW 20:58:56 10° SSE daylight
02 Mar - 22:41:55 10° W 22:50:11 18° SW 22:57:42 10° SSW daylight
03 Mar - 11:50:32 10° SE 11:53:15 11° ESE 11:56:12 10° ESE visible
03 Mar - 13:46:28 10° SSW 13:55:47 39° SE 14:08:10 10° E daylight
03 Mar - 15:48:54 10° WSW 16:00:38 66° SSE 16:15:30 10° E daylight
03 Mar - 17:53:25 10° W 18:06:56 69° S 18:21:49 10° ESE daylight
03 Mar - 19:59:09 10° W 20:12:56 48° SSW 20:26:06 10° SE daylight
03 Mar - 22:07:28 10° W 22:17:08 21° SW 22:25:59 10° S daylight
04 Mar - 13:14:13 10° SSW 13:22:46 34° SE 13:34:13 10° E daylight
04 Mar - 15:16:09 10° WSW 15:27:12 63° SSE 15:41:47 10° E daylight
04 Mar - 17:20:20 10° W 17:33:20 70° S 17:48:22 10° ESE daylight
04 Mar - 19:25:45 10° W 19:39:27 51° SSW 19:53:09 10° SE daylight
04 Mar - 21:33:19 10° W 21:44:00 24° SW 21:53:56 10° S daylight
05 Mar - 12:42:06 10° SSW 12:49:52 30° SE 13:00:12 10° E visible
05 Mar - 14:43:29 10° WSW 14:53:53 60° SSE 15:08:01 10° E daylight
05 Mar - 16:47:21 10° W 16:59:46 70° S 17:14:51 10° ESE daylight
05 Mar - 18:52:27 10° W 19:05:56 54° SSW 19:20:05 10° SE daylight
05 Mar - 20:59:24 10° W 21:10:49 28° SW 21:21:40 10° S daylight
06 Mar - 12:10:09 10° S 12:17:03 25° SE 12:26:07 10° E visible
06 Mar - 14:10:56 10° SW 14:20:38 56° SSE 14:34:12 10° E daylight
06 Mar - 16:14:26 10° W 16:26:14 70° S 16:41:14 10° ESE daylight
06 Mar - 18:19:14 10° W 18:32:24 57° SSW 18:46:52 10° SE daylight
06 Mar - 20:25:40 10° W 20:37:33 31° SW 20:49:11 10° SSE daylight
07 Mar - 11:38:22 10° S 11:44:19 21° SE 11:51:55 10° E visible
07 Mar - 13:38:27 10° SW 13:47:29 52° SSE 14:00:22 10° E daylight
07 Mar - 15:41:37 10° WSW 15:52:46 70° S 16:07:33 10° E daylight
07 Mar - 17:46:08 10° W 17:58:53 59° SSW 18:13:34 10° SE daylight
07 Mar - 19:52:05 10° W 20:04:14 34° SW 20:16:33 10° SSE daylight
08 Mar - 11:06:52 10° SSE 11:11:40 17° SE 11:17:32 10° E visible
08 Mar - 13:06:04 10° SW 13:14:27 47° SSE 13:26:32 10° E daylight
08 Mar - 15:08:52 10° WSW 15:19:22 68° S 15:33:48 10° E daylight
08 Mar - 17:13:06 10° W 17:25:21 62° SSW 17:40:09 10° ESE daylight
08 Mar - 19:18:39 10° W 19:30:52 37° SW 19:43:45 10° SSE daylight
08 Mar - 21:29:37 10° WSW 21:34:49 13° SW 21:39:57 10° SSW daylight
